Time,TemperatureF,DewpointF,PressureIn,WindDirection,WindDirectionDegrees,WindSpeedMPH,WindSpeedGustMPH,Humidity,HourlyPrecipIn,Conditions,Clouds,dailyrainin,SoftwareType,DateUTC
2013-01-17 00:00:00,47.3,46.8,29.97,ENE,68,0.0,2.0,98,0.00,,SKC,0.00,VWS V14.00,2013-01-17 05:00:00,
2013-01-17 00:05:00,47.2,46.7,29.96,ENE,68,1.0,3.0,98,0.00,,SKC,0.00,VWS V14.00,2013-01-17 05:05:00,
2013-01-17 00:10:00,47.3,46.8,29.95,East,90,2.0,4.0,98,0.00,,SKC,0.00,VWS V14.00,2013-01-17 05:10:00,
2013-01-17 00:15:00,47.3,46.8,29.96,East,90,1.0,3.0,98,0.00,,SKC,0.00,VWS V14.00,2013-01-17 05:15:00,
2013-01-17 00:20:00,47.3,46.8,29.96,East,90,1.0,2.0,98,0.00,,SKC,0.00,VWS V14.00,2013-01-17 05:20:00,
2013-01-17 00:25:00,47.3,46.8,29.96,East,90,0.0,2.0,98,0.00,,SKC,0.00,VWS V14.00,2013-01-17 05:25:00,
2013-01-17 00:30:00,47.3,46.8,29.96,East,90,1.0,2.0,98,0.00,,SKC,0.00,VWS V14.00,2013-01-17 05:30:00,
2013-01-17 00:35:00,47.4,46.9,29.96,East,90,1.0,2.0,98,0.00,,SKC,0.00,VWS V14.00,2013-01-17 05:35:00,
2013-01-17 00:40:00,47.4,46.9,29.96,East,90,2.0,4.0,98,0.00,,SKC,0.00,VWS V14.00,2013-01-17 05:40:00,
2013-01-17 00:45:00,47.4,46.9,29.96,ESE,112,2.0,3.0,98,0.00,,SKC,0.00,VWS V14.00,2013-01-17 05:45:00,
2013-01-17 00:50:00,47.4,46.9,29.96,ESE,112,2.0,4.0,98,0.00,,SKC,0.00,VWS V14.00,2013-01-17 05:50:00,
2013-01-17 00:55:00,47.4,46.9,29.96,East,90,1.0,5.0,98,0.00,,SKC,0.00,VWS V14.00,2013-01-17 05:55:00,
2013-01-17 01:00:00,47.4,46.9,29.96,East,90,0.0,2.0,98,0.00,,SKC,0.00,VWS V14.00,2013-01-17 06:00:00,
2013-01-17 01:05:00,47.4,46.9,29.96,East,90,1.0,2.0,98,0.00,,SKC,0.00,VWS V14.00,2013-01-17 06:05:00,
2013-01-17 01:10:00,47.5,47.0,29.96,East,90,1.0,2.0,98,0.00,,SKC,0.00,VWS V14.00,2013-01-17 06:10:00,
2013-01-17 01:15:00,47.5,47.0,29.96,East,90,1.0,2.0,98,0.00,,SKC,0.00,VWS V14.00,2013-01-17 06:15:00,
2013-01-17 01:20:00,47.5,47.0,29.97,East,90,1.0,2.0,98,0.00,,SKC,0.00,VWS V14.00,2013-01-17 06:20:00,
2013-01-17 01:25:00,47.5,47.0,29.97,East,90,0.0,2.0,98,0.00,,SKC,0.00,VWS V14.00,2013-01-17 06:25:00,
2013-01-17 01:30:00,47.6,47.1,29.97,East,90,0.0,2.0,98,0.00,,SKC,0.00,VWS V14.00,2013-01-17 06:30:00,
2013-01-17 01:35:00,47.6,47.1,29.97,East,90,0.0,1.0,98,0.00,,SKC,0.00,VWS V14.00,2013-01-17 06:35:00,
2013-01-17 01:40:00,47.6,47.1,29.97,East,90,1.0,2.0,98,0.00,,SKC,0.00,VWS V14.00,2013-01-17 06:40:00,
2013-01-17 01:45:00,47.6,47.1,29.97,East,90,1.0,3.0,98,0.00,,SKC,0.00,VWS V14.00,2013-01-17 06:45:00,
2013-01-17 01:50:00,47.6,47.1,29.98,East,90,0.0,2.0,98,0.00,,SKC,0.00,VWS V14.00,2013-01-17 06:50:00,
2013-01-17 01:55:00,47.7,47.2,29.99,East,90,1.0,3.0,98,0.01,,SKC,0.01,VWS V14.00,2013-01-17 06:55:00,
2013-01-17 02:00:00,47.7,47.2,29.98,NNE,22,0.0,2.0,98,0.03,,SKC,0.03,VWS V14.00,2013-01-17 07:00:00,
2013-01-17 02:05:00,47.7,47.2,29.99,NNE,22,0.0,1.0,98,0.04,,SKC,0.04,VWS V14.00,2013-01-17 07:05:00,
2013-01-17 02:10:00,47.7,47.2,29.99,NNE,22,1.0,2.0,98,0.04,,SKC,0.04,VWS V14.00,2013-01-17 07:10:00,
2013-01-17 02:15:00,47.7,47.2,29.99,NNE,22,1.0,3.0,98,0.05,,SKC,0.05,VWS V14.00,2013-01-17 07:15:00,
2013-01-17 02:20:00,47.8,47.3,29.99,NNE,22,1.0,3.0,98,0.05,,SKC,0.05,VWS V14.00,2013-01-17 07:20:00,
2013-01-17 02:25:00,47.8,47.3,29.99,NNE,22,0.0,2.0,98,0.06,,SKC,0.06,VWS V14.00,2013-01-17 07:25:00,
2013-01-17 02:30:00,47.8,47.3,29.99,NNE,22,0.0,2.0,98,0.06,,SKC,0.06,VWS V14.00,2013-01-17 07:30:00,
2013-01-17 02:35:00,47.8,47.3,29.99,NNE,22,0.0,1.0,98,0.07,,SKC,0.07,VWS V14.00,2013-01-17 07:35:00,
2013-01-17 02:40:00,47.8,47.3,29.99,NNE,22,0.0,0.0,98,0.08,,SKC,0.08,VWS V14.00,2013-01-17 07:40:00,
2013-01-17 02:45:00,47.8,47.3,29.98,ENE,68,1.0,2.0,98,0.08,,SKC,0.08,VWS V14.00,2013-01-17 07:45:00,
2013-01-17 02:50:00,47.8,47.3,29.98,ENE,68,0.0,1.0,98,0.08,,SKC,0.08,VWS V14.00,2013-01-17 07:50:00,
2013-01-17 02:55:00,47.8,47.3,29.98,ENE,68,0.0,2.0,98,0.09,,SKC,0.09,VWS V14.00,2013-01-17 07:55:00,
2013-01-17 03:00:00,47.8,47.3,29.98,NE,45,1.0,3.0,98,0.08,,SKC,0.09,VWS V14.00,2013-01-17 08:00:00,
2013-01-17 03:05:00,47.8,47.3,29.98,NNE,22,1.0,2.0,98,0.07,,SKC,0.10,VWS V14.00,2013-01-17 08:05:00,
2013-01-17 03:10:00,47.8,47.3,29.98,NNE,22,0.0,1.0,98,0.06,,SKC,0.10,VWS V14.00,2013-01-17 08:10:00,
2013-01-17 03:15:00,47.8,47.3,29.97,ENE,68,1.0,2.0,98,0.07,,SKC,0.11,VWS V14.00,2013-01-17 08:15:00,
2013-01-17 03:20:00,47.8,47.3,29.98,ENE,68,0.0,1.0,98,0.07,,SKC,0.12,VWS V14.00,2013-01-17 08:20:00,
2013-01-17 03:25:00,47.8,47.3,29.98,ENE,68,0.0,2.0,98,0.08,,SKC,0.13,VWS V14.00,2013-01-17 08:25:00,
2013-01-17 03:30:00,47.8,47.3,29.98,ENE,68,0.0,2.0,98,0.07,,SKC,0.13,VWS V14.00,2013-01-17 08:30:00,
2013-01-17 03:35:00,47.8,47.3,29.97,ENE,68,0.0,2.0,98,0.08,,SKC,0.14,VWS V14.00,2013-01-17 08:35:00,
2013-01-17 03:40:00,47.8,47.3,29.97,ENE,68,0.0,1.0,98,0.07,,SKC,0.14,VWS V14.00,2013-01-17 08:40:00,
2013-01-17 03:45:00,47.8,47.5,29.97,NNE,22,1.0,2.0,99,0.07,,SKC,0.15,VWS V14.00,2013-01-17 08:45:00,
2013-01-17 03:50:00,47.8,47.5,29.98,North,0,1.0,3.0,99,0.08,,SKC,0.16,VWS V14.00,2013-01-17 08:50:00,
2013-01-17 03:55:00,47.8,47.5,29.98,North,0,0.0,2.0,99,0.09,,SKC,0.17,VWS V14.00,2013-01-17 08:55:00,
2013-01-17 04:00:00,47.8,47.5,29.98,NE,45,1.0,2.0,99,0.09,,SKC,0.18,VWS V14.00,2013-01-17 09:00:00,
2013-01-17 04:05:00,47.8,47.5,29.98,North,0,1.0,3.0,99,0.10,,SKC,0.19,VWS V14.00,2013-01-17 09:05:00,
2013-01-17 04:10:00,47.8,47.5,29.98,North,0,0.0,2.0,99,0.11,,SKC,0.21,VWS V14.00,2013-01-17 09:10:00,
2013-01-17 04:15:00,47.8,47.5,29.98,North,0,0.0,2.0,99,0.12,,SKC,0.22,VWS V14.00,2013-01-17 09:15:00,
2013-01-17 04:20:00,47.8,47.5,29.98,North,0,0.0,1.0,99,0.12,,SKC,0.23,VWS V14.00,2013-01-17 09:20:00,
2013-01-17 04:25:00,47.8,47.5,29.97,NNE,22,0.0,1.0,99,0.11,,SKC,0.23,VWS V14.00,2013-01-17 09:25:00,
2013-01-17 04:30:00,47.8,47.5,29.97,NNE,22,0.0,1.0,99,0.11,,SKC,0.24,VWS V14.00,2013-01-17 09:30:00,
2013-01-17 04:35:00,47.8,47.5,29.97,NNE,22,0.0,2.0,99,0.11,,SKC,0.24,VWS V14.00,2013-01-17 09:35:00,
2013-01-17 04:40:00,47.8,47.5,29.97,NNE,22,0.0,2.0,99,0.11,,SKC,0.25,VWS V14.00,2013-01-17 09:40:00,
2013-01-17 04:45:00,47.8,47.5,29.97,NNE,22,0.0,2.0,99,0.12,,SKC,0.26,VWS V14.00,2013-01-17 09:45:00,
2013-01-17 04:50:00,47.8,47.5,29.97,NNE,22,0.0,1.0,99,0.11,,SKC,0.26,VWS V14.00,2013-01-17 09:50:00,
2013-01-17 04:55:00,47.8,47.5,29.97,NNE,22,1.0,2.0,99,0.11,,SKC,0.27,VWS V14.00,2013-01-17 09:55:00,
2013-01-17 05:00:00,47.8,47.5,29.97,WNW,292,1.0,3.0,99,0.11,,SKC,0.28,VWS V14.00,2013-01-17 10:00:00,
2013-01-17 05:05:00,47.8,47.5,29.97,East,90,1.0,3.0,99,0.11,,SKC,0.29,VWS V14.00,2013-01-17 10:05:00,
2013-01-17 05:10:00,47.8,47.5,29.97,East,90,1.0,4.0,99,0.11,,SKC,0.30,VWS V14.00,2013-01-17 10:10:00,
2013-01-17 05:15:00,47.8,47.5,29.97,ENE,68,1.0,3.0,99,0.09,,SKC,0.30,VWS V14.00,2013-01-17 10:15:00,
2013-01-17 05:20:00,47.8,47.5,29.97,East,90,1.0,3.0,99,0.09,,SKC,0.31,VWS V14.00,2013-01-17 10:20:00,
2013-01-17 05:25:00,47.8,47.5,29.96,ENE,68,1.0,3.0,99,0.09,,SKC,0.32,VWS V14.00,2013-01-17 10:25:00,
2013-01-17 05:30:00,47.7,47.4,29.96,ENE,68,2.0,3.0,99,0.09,,SKC,0.32,VWS V14.00,2013-01-17 10:30:00,
2013-01-17 05:35:00,47.7,47.2,29.96,NE,45,1.0,5.0,98,0.08,,SKC,0.32,VWS V14.00,2013-01-17 10:35:00,
2013-01-17 05:40:00,47.7,47.2,29.97,East,90,1.0,4.0,98,0.09,,SKC,0.33,VWS V14.00,2013-01-17 10:40:00,
2013-01-17 05:45:00,47.7,47.2,29.97,ENE,68,1.0,4.0,98,0.08,,SKC,0.33,VWS V14.00,2013-01-17 10:45:00,
2013-01-17 05:50:00,47.6,47.1,29.97,East,90,1.0,4.0,98,0.07,,SKC,0.33,VWS V14.00,2013-01-17 10:50:00,
2013-01-17 05:55:00,47.6,47.1,29.97,East,90,1.0,2.0,98,0.07,,SKC,0.33,VWS V14.00,2013-01-17 10:55:00,
2013-01-17 06:00:00,47.6,47.1,29.97,East,90,1.0,3.0,98,0.06,,SKC,0.33,VWS V14.00,2013-01-17 11:00:00,
2013-01-17 06:05:00,47.6,47.1,29.97,ENE,68,1.0,3.0,98,0.05,,SKC,0.33,VWS V14.00,2013-01-17 11:05:00,
2013-01-17 06:10:00,47.6,47.1,29.97,East,90,1.0,5.0,98,0.05,,SKC,0.34,VWS V14.00,2013-01-17 11:10:00,
2013-01-17 06:15:00,47.5,47.0,29.98,East,90,1.0,4.0,98,0.04,,SKC,0.34,VWS V14.00,2013-01-17 11:15:00,
2013-01-17 06:20:00,47.6,47.1,29.98,WSW,248,1.0,4.0,98,0.04,,SKC,0.34,VWS V14.00,2013-01-17 11:20:00,
2013-01-17 06:25:00,47.6,47.1,29.98,ENE,68,1.0,3.0,98,0.03,,SKC,0.34,VWS V14.00,2013-01-17 11:25:00,
2013-01-17 06:30:00,47.6,47.1,29.98,East,90,1.0,3.0,98,0.02,,SKC,0.34,VWS V14.00,2013-01-17 11:30:00,
2013-01-17 06:35:00,47.5,47.0,29.98,ENE,68,2.0,4.0,98,0.02,,SKC,0.34,VWS V14.00,2013-01-17 11:35:00,
2013-01-17 06:40:00,47.5,47.0,29.98,East,90,1.0,3.0,98,0.02,,SKC,0.34,VWS V14.00,2013-01-17 11:40:00,
2013-01-17 06:45:00,47.5,47.0,29.99,ENE,68,1.0,3.0,98,0.01,,SKC,0.34,VWS V14.00,2013-01-17 11:45:00,
2013-01-17 06:50:00,47.5,47.0,29.99,ESE,112,1.0,4.0,98,0.01,,SKC,0.34,VWS V14.00,2013-01-17 11:50:00,
2013-01-17 06:55:00,47.4,46.9,29.99,ENE,68,1.0,3.0,98,0.02,,SKC,0.35,VWS V14.00,2013-01-17 11:55:00,
2013-01-17 07:00:00,47.4,46.9,29.99,ENE,68,1.0,3.0,98,0.02,,SKC,0.35,VWS V14.00,2013-01-17 12:00:00,
2013-01-17 07:05:00,47.4,47.1,30.00,East,90,1.0,3.0,99,0.02,,SKC,0.35,VWS V14.00,2013-01-17 12:05:00,
2013-01-17 07:10:00,47.3,47.0,30.00,ENE,68,1.0,3.0,99,0.02,,SKC,0.35,VWS V14.00,2013-01-17 12:10:00,
2013-01-17 07:15:00,47.2,46.9,30.01,East,90,0.0,2.0,99,0.02,,SKC,0.36,VWS V14.00,2013-01-17 12:15:00,
2013-01-17 07:20:00,47.2,46.9,30.01,WNW,292,2.0,5.0,99,0.02,,SKC,0.36,VWS V14.00,2013-01-17 12:20:00,
2013-01-17 07:25:00,47.2,46.9,30.01,East,90,1.0,4.0,99,0.02,,SKC,0.36,VWS V14.00,2013-01-17 12:25:00,
2013-01-17 07:30:00,47.2,46.9,30.02,East,90,1.0,3.0,99,0.03,,SKC,0.37,VWS V14.00,2013-01-17 12:30:00,
2013-01-17 07:35:00,47.2,46.9,30.02,ESE,112,1.0,5.0,99,0.03,,SKC,0.37,VWS V14.00,2013-01-17 12:35:00,
2013-01-17 07:40:00,46.9,46.4,30.02,East,90,3.0,5.0,98,0.04,,SKC,0.38,VWS V14.00,2013-01-17 12:40:00,
2013-01-17 07:45:00,46.7,46.2,30.02,East,90,3.0,7.0,98,0.04,,SKC,0.38,VWS V14.00,2013-01-17 12:45:00,
2013-01-17 07:50:00,46.5,46.0,30.02,ENE,68,2.0,5.0,98,0.04,,SKC,0.38,VWS V14.00,2013-01-17 12:50:00,
2013-01-17 07:55:00,46.5,46.0,30.03,East,90,2.0,6.0,98,0.04,,SKC,0.38,VWS V14.00,2013-01-17 12:55:00,
2013-01-17 08:00:00,46.4,45.9,30.03,ENE,68,2.0,5.0,98,0.05,,SKC,0.40,VWS V14.00,2013-01-17 13:00:00,
2013-01-17 08:05:00,46.4,45.9,30.03,East,90,2.0,4.0,98,0.05,,SKC,0.40,VWS V14.00,2013-01-17 13:05:00,
2013-01-17 08:10:00,46.3,45.8,30.03,East,90,2.0,6.0,98,0.06,,SKC,0.41,VWS V14.00,2013-01-17 13:10:00,
2013-01-17 08:15:00,46.3,45.8,30.03,ENE,68,2.0,4.0,98,0.06,,SKC,0.41,VWS V14.00,2013-01-17 13:15:00,
2013-01-17 08:20:00,46.1,45.6,30.03,ENE,68,2.0,6.0,98,0.05,,SKC,0.41,VWS V14.00,2013-01-17 13:20:00,
2013-01-17 08:25:00,46.1,45.6,30.03,ESE,112,2.0,5.0,98,0.05,,SKC,0.41,VWS V14.00,2013-01-17 13:25:00,
2013-01-17 08:30:00,46.1,45.6,30.04,East,90,2.0,4.0,98,0.05,,SKC,0.41,VWS V14.00,2013-01-17 13:30:00,
2013-01-17 08:35:00,46.0,45.5,30.04,East,90,3.0,5.0,98,0.04,,SKC,0.41,VWS V14.00,2013-01-17 13:35:00,
2013-01-17 08:40:00,46.0,45.5,30.04,East,90,3.0,6.0,98,0.05,,SKC,0.42,VWS V14.00,2013-01-17 13:40:00,
2013-01-17 08:45:00,46.0,45.5,30.05,East,90,2.0,7.0,98,0.04,,SKC,0.42,VWS V14.00,2013-01-17 13:45:00,
2013-01-17 08:50:00,46.0,45.5,30.05,ENE,68,3.0,7.0,98,0.04,,SKC,0.42,VWS V14.00,2013-01-17 13:50:00,
2013-01-17 08:55:00,46.0,45.5,30.05,ENE,68,3.0,6.0,98,0.05,,SKC,0.43,VWS V14.00,2013-01-17 13:55:00,
2013-01-17 09:00:00,46.0,45.5,30.05,ENE,68,2.0,6.0,98,0.05,,SKC,0.43,VWS V14.00,2013-01-17 14:00:00,
2013-01-17 09:05:00,46.0,45.7,30.05,ENE,68,2.0,5.0,99,0.03,,SKC,0.43,VWS V14.00,2013-01-17 14:05:00,
2013-01-17 09:10:00,46.1,45.8,30.05,ENE,68,2.0,5.0,99,0.04,,SKC,0.44,VWS V14.00,2013-01-17 14:10:00,
2013-01-17 09:15:00,46.1,45.6,30.06,East,90,2.0,6.0,98,0.03,,SKC,0.44,VWS V14.00,2013-01-17 14:15:00,
2013-01-17 09:20:00,46.1,45.6,30.06,ENE,68,3.0,6.0,98,0.03,,SKC,0.44,VWS V14.00,2013-01-17 14:20:00,
2013-01-17 09:25:00,46.0,45.5,30.06,ENE,68,3.0,6.0,98,0.03,,SKC,0.44,VWS V14.00,2013-01-17 14:25:00,
2013-01-17 09:30:00,46.0,45.5,30.06,East,90,3.0,8.0,98,0.03,,SKC,0.44,VWS V14.00,2013-01-17 14:30:00,
2013-01-17 09:35:00,46.0,45.5,30.06,East,90,3.0,9.0,98,0.03,,SKC,0.44,VWS V14.00,2013-01-17 14:35:00,
2013-01-17 09:40:00,46.0,45.5,30.06,ENE,68,3.0,7.0,98,0.03,,SKC,0.44,VWS V14.00,2013-01-17 14:40:00,
2013-01-17 09:45:00,46.0,45.5,30.06,ENE,68,3.0,7.0,98,0.03,,SKC,0.45,VWS V14.00,2013-01-17 14:45:00,
2013-01-17 09:50:00,46.0,45.5,30.06,ENE,68,3.0,7.0,98,0.03,,SKC,0.45,VWS V14.00,2013-01-17 14:50:00,
2013-01-17 10:04:00,46.0,45.5,30.06,ENE,68,2.0,7.0,98,0.03,,SKC,0.45,VWS V14.00,2013-01-17 15:04:00,
2013-01-17 10:09:00,45.9,45.4,30.06,ENE,78,5.0,5.0,98,0.05,,SKC,0.48,VWS V14.00,2013-01-17 15:09:00,
2013-01-17 10:14:00,46.0,45.5,30.06,East,92,4.0,5.0,98,0.04,,SKC,0.48,VWS V14.00,2013-01-17 15:14:00,
2013-01-17 10:19:00,46.0,45.5,30.06,NE,52,2.0,7.0,98,0.04,,SKC,0.48,VWS V14.00,2013-01-17 15:19:00,
2013-01-17 10:24:00,45.9,45.4,30.07,SSW,199,1.0,6.0,98,0.04,,SKC,0.48,VWS V14.00,2013-01-17 15:24:00,
2013-01-17 10:29:00,45.9,45.4,30.06,East,94,5.0,10.0,98,0.05,,SKC,0.49,VWS V14.00,2013-01-17 15:29:00,
2013-01-17 10:34:00,45.9,45.4,30.05,East,96,5.0,9.0,98,0.05,,SKC,0.49,VWS V14.00,2013-01-17 15:34:00,
2013-01-17 10:39:00,45.8,45.3,30.06,ESE,108,4.0,12.0,98,0.05,,SKC,0.49,VWS V14.00,2013-01-17 15:39:00,
2013-01-17 10:44:00,45.8,45.3,30.05,East,87,5.0,10.0,98,0.05,,SKC,0.49,VWS V14.00,2013-01-17 15:44:00,
2013-01-17 10:49:00,45.7,45.2,30.06,ENE,67,10.0,11.0,98,0.04,,SKC,0.49,VWS V14.00,2013-01-17 15:49:00,
2013-01-17 10:54:00,45.6,45.1,30.05,ESE,109,3.0,7.0,98,0.05,,SKC,0.50,VWS V14.00,2013-01-17 15:54:00,
2013-01-17 10:59:00,45.6,45.1,30.05,ESE,102,3.0,6.0,98,0.05,,SKC,0.50,VWS V14.00,2013-01-17 15:59:00,
2013-01-17 11:04:00,45.5,45.0,30.05,North,11,3.0,10.0,98,0.05,,SKC,0.50,VWS V14.00,2013-01-17 16:04:00,
2013-01-17 11:09:00,45.5,45.0,30.05,ENE,65,2.0,6.0,98,0.05,,SKC,0.50,VWS V14.00,2013-01-17 16:09:00,
2013-01-17 11:14:00,45.4,44.9,30.05,NE,44,1.0,9.0,98,0.02,,SKC,0.50,VWS V14.00,2013-01-17 16:14:00,
2013-01-17 11:19:00,45.4,44.9,30.05,ESE,108,5.0,6.0,98,0.02,,SKC,0.50,VWS V14.00,2013-01-17 16:19:00,
2013-01-17 11:24:00,45.3,44.8,30.05,East,90,2.0,7.0,98,0.02,,SKC,0.50,VWS V14.00,2013-01-17 16:24:00,
2013-01-17 11:29:00,45.2,44.7,30.05,SE,132,3.0,9.0,98,0.02,,SKC,0.50,VWS V14.00,2013-01-17 16:29:00,
2013-01-17 11:34:00,45.1,44.6,30.04,East,80,6.0,12.0,98,0.01,,SKC,0.50,VWS V14.00,2013-01-17 16:34:00,
2013-01-17 11:39:00,45.0,44.5,30.04,WSW,240,2.0,7.0,98,0.01,,SKC,0.50,VWS V14.00,2013-01-17 16:39:00,
2013-01-17 11:44:00,44.8,44.3,30.02,East,83,3.0,10.0,98,0.02,,SKC,0.51,VWS V14.00,2013-01-17 16:44:00,
2013-01-17 11:49:00,44.7,44.2,30.03,ESE,121,2.0,5.0,98,0.02,,SKC,0.51,VWS V14.00,2013-01-17 16:49:00,
2013-01-17 11:54:00,44.5,44.0,30.03,ENE,73,1.0,10.0,98,0.02,,SKC,0.51,VWS V14.00,2013-01-17 16:54:00,
2013-01-17 11:59:00,44.1,43.3,30.03,ENE,65,6.0,7.0,97,0.01,,SKC,0.51,VWS V14.00,2013-01-17 16:59:00,
2013-01-17 12:04:00,43.9,43.1,30.03,SE,146,3.0,9.0,97,0.01,,SKC,0.51,VWS V14.00,2013-01-17 17:04:00,
2013-01-17 12:09:00,43.7,42.9,30.03,East,96,1.0,6.0,97,0.01,,SKC,0.51,VWS V14.00,2013-01-17 17:09:00,
2013-01-17 12:14:00,43.6,42.8,30.03,WNW,298,2.0,6.0,97,0.01,,SKC,0.51,VWS V14.00,2013-01-17 17:14:00,
2013-01-17 12:19:00,43.5,42.7,30.04,ESE,112,3.0,10.0,97,0.01,,SKC,0.51,VWS V14.00,2013-01-17 17:19:00,
2013-01-17 12:24:00,43.4,42.6,30.03,NW,318,0.0,5.0,97,0.01,,SKC,0.51,VWS V14.00,2013-01-17 17:24:00,
2013-01-17 12:29:00,43.4,42.6,30.03,East,86,3.0,5.0,97,0.01,,SKC,0.51,VWS V14.00,2013-01-17 17:29:00,
2013-01-17 12:34:00,43.4,42.6,30.02,ESE,120,1.0,7.0,97,0.01,,SKC,0.51,VWS V14.00,2013-01-17 17:34:00,
2013-01-17 12:39:00,43.2,42.4,30.02,SE,136,3.0,7.0,97,0.01,,SKC,0.51,VWS V14.00,2013-01-17 17:39:00,
2013-01-17 12:44:00,43.0,42.2,30.02,ENE,65,3.0,6.0,97,0.01,,SKC,0.51,VWS V14.00,2013-01-17 17:44:00,
2013-01-17 12:49:00,42.9,42.1,30.02,ENE,57,1.0,7.0,97,0.00,,SKC,0.51,VWS V14.00,2013-01-17 17:49:00,
2013-01-17 12:54:00,42.8,42.0,30.02,WSW,249,6.0,7.0,97,0.00,,SKC,0.51,VWS V14.00,2013-01-17 17:54:00,
2013-01-17 12:59:00,42.8,42.0,30.02,East,96,2.0,5.0,97,0.01,,SKC,0.52,VWS V14.00,2013-01-17 17:59:00,
2013-01-17 13:04:00,42.9,42.1,30.01,East,88,1.0,7.0,97,0.01,,SKC,0.52,VWS V14.00,2013-01-17 18:04:00,
2013-01-17 13:09:00,42.9,42.1,30.01,ENE,63,0.0,7.0,97,0.01,,SKC,0.52,VWS V14.00,2013-01-17 18:09:00,
2013-01-17 13:14:00,42.9,42.1,30.02,ESE,115,2.0,6.0,97,0.01,,SKC,0.52,VWS V14.00,2013-01-17 18:14:00,
2013-01-17 13:19:00,42.8,42.0,30.01,East,86,4.0,9.0,97,0.01,,SKC,0.52,VWS V14.00,2013-01-17 18:19:00,
2013-01-17 13:24:00,42.8,42.0,30.01,ENE,78,2.0,7.0,97,0.01,,SKC,0.52,VWS V14.00,2013-01-17 18:24:00,
2013-01-17 13:29:00,42.8,42.0,30.00,SE,144,0.0,7.0,97,0.02,,SKC,0.53,VWS V14.00,2013-01-17 18:29:00,
2013-01-17 13:34:00,42.8,42.0,30.00,ENE,69,3.0,7.0,97,0.02,,SKC,0.53,VWS V14.00,2013-01-17 18:34:00,
2013-01-17 13:39:00,42.7,41.9,30.00,ESE,114,2.0,14.0,97,0.03,,SKC,0.54,VWS V14.00,2013-01-17 18:39:00,
2013-01-17 13:44:00,42.6,41.8,29.99,NW,325,3.0,9.0,97,0.03,,SKC,0.54,VWS V14.00,2013-01-17 18:44:00,
2013-01-17 13:49:00,42.6,41.8,29.99,ESE,113,2.0,7.0,97,0.03,,SKC,0.54,VWS V14.00,2013-01-17 18:49:00,
2013-01-17 13:54:00,42.7,41.9,29.99,North,355,6.0,10.0,97,0.03,,SKC,0.54,VWS V14.00,2013-01-17 18:54:00,
2013-01-17 13:59:00,42.6,41.8,30.00,ESE,110,3.0,11.0,97,0.03,,SKC,0.54,VWS V14.00,2013-01-17 18:59:00,
2013-01-17 14:05:00,42.5,41.7,30.00,East,86,7.0,10.0,97,0.02,,SKC,0.54,VWS V14.00,2013-01-17 19:05:00,
2013-01-17 14:09:00,42.5,41.7,30.00,SSW,205,2.0,7.0,97,0.02,,SKC,0.54,VWS V14.00,2013-01-17 19:09:00,
2013-01-17 14:15:00,42.5,41.7,29.99,East,88,1.0,6.0,97,0.02,,SKC,0.54,VWS V14.00,2013-01-17 19:15:00,
2013-01-17 14:20:00,42.5,41.7,29.99,East,86,7.0,10.0,97,0.02,,SKC,0.54,VWS V14.00,2013-01-17 19:20:00,
2013-01-17 14:25:00,42.5,41.4,30.00,East,97,2.0,7.0,96,0.02,,SKC,0.54,VWS V14.00,2013-01-17 19:25:00,
2013-01-17 14:30:00,42.5,41.4,30.00,East,80,5.0,7.0,96,0.02,,SKC,0.54,VWS V14.00,2013-01-17 19:30:00,
2013-01-17 14:35:00,42.4,41.3,30.00,WSW,252,3.0,11.0,96,0.01,,SKC,0.54,VWS V14.00,2013-01-17 19:35:00,
2013-01-17 14:40:00,42.4,41.3,30.00,East,90,4.0,11.0,96,0.01,,SKC,0.54,VWS V14.00,2013-01-17 19:40:00,
2013-01-17 14:45:00,42.3,41.2,30.00,WNW,288,3.0,7.0,96,0.00,,SKC,0.54,VWS V14.00,2013-01-17 19:45:00,
2013-01-17 14:50:00,42.3,41.2,30.00,NNE,13,2.0,7.0,96,0.00,,SKC,0.54,VWS V14.00,2013-01-17 19:50:00,
2013-01-17 14:55:00,42.3,41.2,30.00,WSW,248,2.0,9.0,96,0.00,,SKC,0.54,VWS V14.00,2013-01-17 19:55:00,
2013-01-17 15:00:00,42.3,41.2,30.01,WNW,298,6.0,9.0,96,0.00,,SKC,0.54,VWS V14.00,2013-01-17 20:00:00,
2013-01-17 15:05:00,42.4,41.3,30.00,SW,223,3.0,6.0,96,0.00,,SKC,0.54,VWS V14.00,2013-01-17 20:05:00,
2013-01-17 15:10:00,42.3,41.2,30.01,West,267,2.0,12.0,96,0.00,,SKC,0.54,VWS V14.00,2013-01-17 20:10:00,
2013-01-17 15:15:00,42.3,41.2,30.01,WNW,298,5.0,7.0,96,0.00,,SKC,0.54,VWS V14.00,2013-01-17 20:15:00,
2013-01-17 15:20:00,42.3,41.2,30.01,NNW,329,5.0,12.0,96,0.00,,SKC,0.54,VWS V14.00,2013-01-17 20:20:00,
2013-01-17 15:25:00,42.2,40.9,30.01,WSW,247,4.0,9.0,95,0.00,,SKC,0.54,VWS V14.00,2013-01-17 20:25:00,
2013-01-17 15:30:00,42.2,40.9,30.01,SSW,192,1.0,9.0,95,0.00,,SKC,0.54,VWS V14.00,2013-01-17 20:30:00,
2013-01-17 15:35:00,42.2,40.9,30.01,SW,220,4.0,7.0,95,0.00,,SKC,0.54,VWS V14.00,2013-01-17 20:35:00,
2013-01-17 15:40:00,42.2,40.9,30.01,SE,146,1.0,4.0,95,0.01,,SKC,0.55,VWS V14.00,2013-01-17 20:40:00,
2013-01-17 15:45:00,42.3,41.2,30.01,SE,143,3.0,4.0,96,0.01,,SKC,0.55,VWS V14.00,2013-01-17 20:45:00,
2013-01-17 15:50:00,42.4,41.3,30.01,SSE,155,2.0,6.0,96,0.01,,SKC,0.55,VWS V14.00,2013-01-17 20:50:00,
2013-01-17 15:55:00,42.5,41.4,30.01,ENE,60,0.0,6.0,96,0.01,,SKC,0.55,VWS V14.00,2013-01-17 20:55:00,
2013-01-17 16:00:00,42.5,41.4,30.02,East,94,1.0,6.0,96,0.01,,SKC,0.55,VWS V14.00,2013-01-17 21:00:00,
2013-01-17 16:05:00,42.5,41.4,30.01,East,83,2.0,6.0,96,0.01,,SKC,0.55,VWS V14.00,2013-01-17 21:05:00,
2013-01-17 16:10:00,42.3,41.2,30.00,South,171,1.0,6.0,96,0.01,,SKC,0.55,VWS V14.00,2013-01-17 21:10:00,
2013-01-17 16:15:00,42.2,41.1,30.00,SSW,210,2.0,6.0,96,0.01,,SKC,0.55,VWS V14.00,2013-01-17 21:15:00,
2013-01-17 16:20:00,42.0,40.9,30.01,WSW,237,1.0,7.0,96,0.01,,SKC,0.55,VWS V14.00,2013-01-17 21:20:00,
2013-01-17 16:25:00,42.0,40.9,30.00,West,263,3.0,7.0,96,0.01,,SKC,0.55,VWS V14.00,2013-01-17 21:25:00,
2013-01-17 16:30:00,41.9,40.8,30.00,ESE,109,3.0,7.0,96,0.01,,SKC,0.55,VWS V14.00,2013-01-17 21:30:00,
2013-01-17 16:35:00,41.9,40.8,30.00,East,79,5.0,11.0,96,0.01,,SKC,0.55,VWS V14.00,2013-01-17 21:35:00,
2013-01-17 16:40:00,41.8,40.8,30.01,East,86,6.0,6.0,96,0.01,,SKC,0.55,VWS V14.00,2013-01-17 21:40:00,
2013-01-17 16:45:00,41.8,40.8,30.01,NE,42,3.0,7.0,96,0.01,,SKC,0.56,VWS V14.00,2013-01-17 21:45:00,
2013-01-17 16:50:00,41.8,40.8,30.01,SE,130,1.0,5.0,96,0.01,,SKC,0.56,VWS V14.00,2013-01-17 21:50:00,
2013-01-17 16:55:00,41.7,40.7,30.01,East,79,5.0,9.0,96,0.01,,SKC,0.56,VWS V14.00,2013-01-17 21:55:00,
2013-01-17 17:00:00,41.6,40.5,30.01,ESE,102,5.0,7.0,96,0.01,,SKC,0.56,VWS V14.00,2013-01-17 22:00:00,
2013-01-17 17:05:00,41.6,40.5,30.01,East,98,2.0,5.0,96,0.01,,SKC,0.56,VWS V14.00,2013-01-17 22:05:00,
2013-01-17 17:10:00,41.6,40.5,30.01,NNE,24,0.0,7.0,96,0.01,,SKC,0.56,VWS V14.00,2013-01-17 22:10:00,
2013-01-17 17:15:00,41.6,40.5,30.01,ESE,103,1.0,7.0,96,0.01,,SKC,0.56,VWS V14.00,2013-01-17 22:15:00,
2013-01-17 17:20:00,41.6,40.5,30.02,NE,42,1.0,4.0,96,0.01,,SKC,0.56,VWS V14.00,2013-01-17 22:20:00,
2013-01-17 17:25:00,41.6,40.5,30.01,SSE,148,3.0,7.0,96,0.01,,SKC,0.56,VWS V14.00,2013-01-17 22:25:00,
2013-01-17 17:30:00,41.5,40.5,30.01,East,90,3.0,8.0,96,0.01,,SKC,0.56,VWS V14.00,2013-01-17 22:30:00,
2013-01-17 17:35:00,41.4,40.3,30.00,SE,145,3.0,12.0,96,0.01,,SKC,0.56,VWS V14.00,2013-01-17 22:35:00,
2013-01-17 17:40:00,41.1,39.8,30.01,ENE,61,4.0,9.0,95,0.01,,SKC,0.56,VWS V14.00,2013-01-17 22:40:00,
2013-01-17 17:45:00,41.0,39.7,30.01,East,92,5.0,7.0,95,0.01,,SKC,0.56,VWS V14.00,2013-01-17 22:45:00,
2013-01-17 17:50:00,41.0,40.0,30.00,SSE,166,3.0,6.0,96,0.00,,SKC,0.56,VWS V14.00,2013-01-17 22:50:00,
2013-01-17 17:55:00,41.0,40.0,30.00,NE,45,2.0,6.0,96,0.00,,SKC,0.56,VWS V14.00,2013-01-17 22:55:00,
2013-01-17 18:00:00,41.0,39.7,30.01,WSW,244,3.0,8.0,95,0.00,,SKC,0.56,VWS V14.00,2013-01-17 23:00:00,
2013-01-17 18:05:00,40.9,39.6,30.00,NW,320,5.0,9.0,95,0.00,,SKC,0.56,VWS V14.00,2013-01-17 23:05:00,
2013-01-17 18:10:00,40.8,39.5,30.00,ENE,59,0.0,7.0,95,0.00,,SKC,0.56,VWS V14.00,2013-01-17 23:10:00,
2013-01-17 18:15:00,40.7,39.4,30.01,ENE,71,2.0,9.0,95,0.00,,SKC,0.56,VWS V14.00,2013-01-17 23:15:00,
2013-01-17 18:20:00,40.7,39.4,30.01,WSW,241,4.0,5.0,95,0.00,,SKC,0.56,VWS V14.00,2013-01-17 23:20:00,
2013-01-17 18:25:00,40.7,39.4,30.01,SE,137,2.0,9.0,95,0.00,,SKC,0.56,VWS V14.00,2013-01-17 23:25:00,
2013-01-17 18:30:00,40.6,39.3,30.01,SW,217,2.0,9.0,95,0.00,,SKC,0.56,VWS V14.00,2013-01-17 23:30:00,
2013-01-17 18:35:00,40.7,39.4,30.01,East,88,4.0,9.0,95,0.00,,SKC,0.56,VWS V14.00,2013-01-17 23:35:00,
2013-01-17 18:40:00,40.7,39.4,30.02,ESE,119,3.0,11.0,95,0.00,,SKC,0.56,VWS V14.00,2013-01-17 23:40:00,
2013-01-17 18:45:00,40.7,39.4,30.02,ESE,108,4.0,10.0,95,0.01,,SKC,0.57,VWS V14.00,2013-01-17 23:45:00,
2013-01-17 18:50:00,40.7,39.4,30.02,East,101,6.0,9.0,95,0.02,,SKC,0.58,VWS V14.00,2013-01-17 23:50:00,
2013-01-17 18:55:00,40.7,39.4,30.01,East,92,3.0,11.0,95,0.03,,SKC,0.59,VWS V14.00,2013-01-17 23:55:00,
2013-01-17 19:00:00,40.6,39.3,30.00,SSE,163,1.0,6.0,95,0.04,,SKC,0.60,VWS V14.00,2013-01-18 00:00:00,
2013-01-17 19:05:00,40.6,39.5,29.99,WSW,251,4.0,9.0,96,0.04,,SKC,0.60,VWS V14.00,2013-01-18 00:05:00,
2013-01-17 19:10:00,40.5,39.2,29.99,SE,132,2.0,6.0,95,0.05,,SKC,0.61,VWS V14.00,2013-01-18 00:10:00,
2013-01-17 19:15:00,40.5,39.5,29.99,NNW,340,5.0,9.0,96,0.05,,SKC,0.61,VWS V14.00,2013-01-18 00:15:00,
2013-01-17 19:20:00,40.4,39.3,29.98,ESE,103,5.0,7.0,96,0.05,,SKC,0.61,VWS V14.00,2013-01-18 00:20:00,
2013-01-17 19:25:00,40.4,39.3,29.98,East,88,1.0,7.0,96,0.05,,SKC,0.61,VWS V14.00,2013-01-18 00:25:00,
2013-01-17 19:30:00,40.3,39.2,29.99,ESE,113,2.0,10.0,96,0.05,,SKC,0.61,VWS V14.00,2013-01-18 00:30:00,
2013-01-17 19:35:00,40.4,39.3,29.98,WSW,250,3.0,6.0,96,0.05,,SKC,0.61,VWS V14.00,2013-01-18 00:35:00,
2013-01-17 19:40:00,40.4,39.3,29.98,SSW,198,1.0,9.0,96,0.06,,SKC,0.62,VWS V14.00,2013-01-18 00:40:00,
2013-01-17 19:45:00,40.4,39.3,29.99,WNW,303,6.0,10.0,96,0.06,,SKC,0.62,VWS V14.00,2013-01-18 00:45:00,
2013-01-17 19:50:00,40.5,39.5,29.98,East,90,2.0,10.0,96,0.05,,SKC,0.62,VWS V14.00,2013-01-18 00:50:00,
2013-01-17 19:55:00,40.5,39.5,29.97,East,87,2.0,7.0,96,0.05,,SKC,0.63,VWS V14.00,2013-01-18 00:55:00,
2013-01-17 20:00:00,40.4,39.3,29.97,SE,134,3.0,9.0,96,0.05,,SKC,0.64,VWS V14.00,2013-01-18 01:00:00,
2013-01-17 20:05:00,40.4,39.3,29.97,SE,130,3.0,9.0,96,0.04,,SKC,0.64,VWS V14.00,2013-01-18 01:05:00,
2013-01-17 20:10:00,40.3,39.2,29.97,WNW,287,7.0,9.0,96,0.05,,SKC,0.65,VWS V14.00,2013-01-18 01:10:00,
2013-01-17 20:15:00,40.3,39.2,29.97,West,277,4.0,12.0,96,0.05,,SKC,0.66,VWS V14.00,2013-01-18 01:15:00,
2013-01-17 20:20:00,40.2,39.2,29.97,SE,132,2.0,10.0,96,0.05,,SKC,0.66,VWS V14.00,2013-01-18 01:20:00,
2013-01-17 20:25:00,40.1,39.0,29.95,ESE,102,4.0,16.0,96,0.06,,SKC,0.67,VWS V14.00,2013-01-18 01:25:00,
2013-01-17 20:30:00,40.0,39.0,29.94,ESE,123,4.0,11.0,96,0.07,,SKC,0.68,VWS V14.00,2013-01-18 01:30:00,
2013-01-17 20:35:00,39.9,38.8,29.94,SSW,199,2.0,12.0,96,0.07,,SKC,0.68,VWS V14.00,2013-01-18 01:35:00,
2013-01-17 20:40:00,39.8,38.8,29.94,East,83,6.0,11.0,96,0.08,,SKC,0.69,VWS V14.00,2013-01-18 01:40:00,
2013-01-17 20:45:00,39.8,38.8,29.94,East,96,4.0,7.0,96,0.07,,SKC,0.69,VWS V14.00,2013-01-18 01:45:00,
2013-01-17 20:50:00,39.7,38.7,29.95,West,264,7.0,10.0,96,0.08,,SKC,0.70,VWS V14.00,2013-01-18 01:50:00,
2013-01-17 20:55:00,39.7,38.7,29.96,West,273,6.0,12.0,96,0.09,,SKC,0.71,VWS V14.00,2013-01-18 01:55:00,
2013-01-17 21:00:00,39.7,38.7,29.96,NW,307,4.0,6.0,96,0.10,,SKC,0.73,VWS V14.00,2013-01-18 02:00:00,
2013-01-17 21:05:00,39.7,38.7,29.94,WNW,283,3.0,11.0,96,0.10,,SKC,0.74,VWS V14.00,2013-01-18 02:05:00,
2013-01-17 21:10:00,39.6,38.6,29.96,NW,325,9.0,12.0,96,0.13,,SKC,0.77,VWS V14.00,2013-01-18 02:10:00,
2013-01-17 21:15:00,39.6,38.6,29.99,NW,312,7.0,14.0,96,0.15,,SKC,0.80,VWS V14.00,2013-01-18 02:15:00,
2013-01-17 21:20:00,39.6,38.6,30.02,North,355,3.0,17.0,96,0.15,,SKC,0.81,VWS V14.00,2013-01-18 02:20:00,
2013-01-17 21:25:00,39.6,38.6,30.04,NW,321,11.0,12.0,96,0.18,,SKC,0.84,VWS V14.00,2013-01-18 02:25:00,
2013-01-17 21:30:00,39.5,38.5,30.04,North,355,3.0,11.0,96,0.19,,SKC,0.86,VWS V14.00,2013-01-18 02:30:00,
2013-01-17 21:35:00,39.2,38.2,30.02,NW,319,6.0,15.0,96,0.21,,SKC,0.89,VWS V14.00,2013-01-18 02:35:00,
2013-01-17 21:40:00,38.8,37.8,30.02,West,275,3.0,13.0,96,0.22,,SKC,0.90,VWS V14.00,2013-01-18 02:40:00,
2013-01-17 21:45:00,38.6,37.6,30.02,South,178,2.0,7.0,96,0.23,,SKC,0.92,VWS V14.00,2013-01-18 02:45:00,
2013-01-17 21:50:00,38.5,37.5,30.01,SSW,209,1.0,6.0,96,0.24,,SKC,0.93,VWS V14.00,2013-01-18 02:50:00,
2013-01-17 21:55:00,38.4,37.4,29.98,SW,225,4.0,11.0,96,0.24,,SKC,0.94,VWS V14.00,2013-01-18 02:55:00,
2013-01-17 22:00:00,38.3,37.3,29.97,NNW,331,4.0,7.0,96,0.23,,SKC,0.95,VWS V14.00,2013-01-18 03:00:00,
2013-01-17 22:05:00,38.2,37.2,29.96,SSE,157,2.0,13.0,96,0.23,,SKC,0.96,VWS V14.00,2013-01-18 03:05:00,
2013-01-17 22:10:00,38.1,37.1,29.95,WNW,284,2.0,12.0,96,0.23,,SKC,0.97,VWS V14.00,2013-01-18 03:10:00,
2013-01-17 22:15:00,38.0,37.0,29.95,NNE,18,2.0,12.0,96,0.21,,SKC,0.98,VWS V14.00,2013-01-18 03:15:00,
2013-01-17 22:20:00,38.0,37.0,29.94,NNW,328,1.0,10.0,96,0.18,,SKC,0.98,VWS V14.00,2013-01-18 03:20:00,
2013-01-17 22:25:00,37.9,36.9,29.93,WNW,288,1.0,14.0,96,0.18,,SKC,0.99,VWS V14.00,2013-01-18 03:25:00,
2013-01-17 22:30:00,37.9,36.9,29.95,SE,136,1.0,12.0,96,0.16,,SKC,1.00,VWS V14.00,2013-01-18 03:30:00,
2013-01-17 22:35:00,37.8,36.8,29.95,NW,323,8.0,11.0,96,0.14,,SKC,1.00,VWS V14.00,2013-01-18 03:35:00,
2013-01-17 22:40:00,37.8,36.8,29.93,West,277,4.0,12.0,96,0.11,,SKC,1.00,VWS V14.00,2013-01-18 03:40:00,
2013-01-17 22:45:00,37.8,36.8,29.94,ESE,123,5.0,12.0,96,0.11,,SKC,1.01,VWS V14.00,2013-01-18 03:45:00,
2013-01-17 22:49:00,37.7,36.7,29.94,West,267,11.0,13.0,96,0.09,,SKC,1.01,VWS V14.00,2013-01-18 03:49:00,
2013-01-17 22:54:00,37.8,36.8,29.94,West,261,3.0,11.0,96,0.09,,SKC,1.02,VWS V14.00,2013-01-18 03:54:00,
2013-01-17 22:59:00,37.7,36.7,29.96,NW,324,10.0,11.0,96,0.09,,SKC,1.03,VWS V14.00,2013-01-18 03:59:00,
2013-01-17 23:04:00,37.8,36.8,29.96,ESE,112,5.0,6.0,96,0.09,,SKC,1.04,VWS V14.00,2013-01-18 04:04:00,
2013-01-17 23:09:00,37.7,36.7,29.98,WNW,301,4.0,10.0,96,0.09,,SKC,1.05,VWS V14.00,2013-01-18 04:09:00,
2013-01-17 23:14:00,37.6,36.6,29.99,WNW,300,6.0,16.0,96,0.10,,SKC,1.07,VWS V14.00,2013-01-18 04:14:00,
2013-01-17 23:19:00,37.4,36.4,29.99,NW,323,10.0,12.0,96,0.11,,SKC,1.09,VWS V14.00,2013-01-18 04:19:00,
2013-01-17 23:24:00,37.1,36.1,30.00,WNW,300,5.0,19.0,96,0.13,,SKC,1.11,VWS V14.00,2013-01-18 04:24:00,
2013-01-17 23:30:00,37.0,36.0,30.02,NW,306,5.0,12.0,96,0.13,,SKC,1.12,VWS V14.00,2013-01-18 04:30:00,
2013-01-17 23:35:00,36.8,35.8,30.01,NNW,333,6.0,12.0,96,0.13,,SKC,1.13,VWS V14.00,2013-01-18 04:35:00,
2013-01-17 23:40:00,36.3,35.3,30.00,NNW,338,10.0,13.0,96,0.15,,SKC,1.15,VWS V14.00,2013-01-18 04:40:00,
2013-01-17 23:45:00,35.9,34.9,30.01,SW,225,4.0,10.0,96,0.16,,SKC,1.16,VWS V14.00,2013-01-18 04:45:00,
2013-01-17 23:50:00,35.5,34.5,30.00,North,360,5.0,11.0,96,0.16,,SKC,1.17,VWS V14.00,2013-01-18 04:50:00,
2013-01-17 23:55:00,35.2,34.2,30.00,WNW,294,8.0,12.0,96,0.16,,SKC,1.17,VWS V14.00,2013-01-18 04:55:00,